Regional Weather Roundup
Issued by NWS Boston, MA

Home | Current Version | Previous Version | Text Only | Print | Product List | Glossary On
Versions: 1 2 3 4 5 6 7 8 9 10 11 12 13 14 15 16 17 18 19 20 21 22 23 24 25 26 27 28 29 30 31 32 33 34 35 36 37 38 39 40 41 42 43 44 45 46 47 48 49 50
559
ASUS41 KBOX 011710
RWRBOX

REGIONAL WEATHER ROUNDUP
NATIONAL WEATHER SERVICE TAUNTON MA
100 PM EDT SUN MAY 01 2016

NOTE:  "FAIR" INDICATES FEW OR NO CLOUDS BELOW 12,000 FEET WITH NO
SIGNIFICANT WEATHER AND/OR OBSTRUCTIONS TO VISIBILITY.  THE FOLLOWING
OBSERVATION LOCATIONS DO NOT REPORT PRESENT WEATHER...PROVINCETOWN...
SMITHFIELD...BLOCK ISLAND...KEENE...AND OXFORD.

MAZALL-011800-
EASTERN MASSACHUSETTS

CITY           SKY/WX    TMP DP  RH WIND       PRES   REMARKS
BOSTON         LGT RAIN  52  30  43 S7        30.23F
BEVERLY        LGT RAIN  50  35  56 SE7       30.23F
LAWRENCE       LGT RAIN  52  32  46 VRB3      30.25F
BEDFORD        LGT RAIN  51  33  50 S8        30.21F
BLUE HILL        N/A     50  24  36 S9G18     30.20F
NORWOOD        CLOUDY    54  28  36 S7        30.22F
MARSHFIELD     CLOUDY    52  30  43 SE10      30.25F
PLYMOUTH       CLOUDY    53  26  35 VRB5      30.23F
TAUNTON        CLOUDY    55  26  32 S6        30.22F
NEW BEDFORD    CLOUDY    52  31  44 SE10      30.22F
$$

MAZALL-011800-
CAPE COD AND THE ISLANDS

CITY           SKY/WX    TMP DP  RH WIND       PRES   REMARKS
FALMOUTH       CLOUDY    50  32  50 SE12      30.24F
HYANNIS        CLOUDY    50  28  42 SE7       30.23F
CHATHAM        CLOUDY    49  29  46 SE8       30.27S
PROVINCETOWN   CLOUDY    52  26  36 S10       30.26S
NANTUCKET      CLOUDY    51  31  46 SE13      30.25S
MARTHAS VNYRD  CLOUDY    51  27  39 SE10      30.24F
$$

MAZALL-011800-
CENTRAL AND WESTERN MASSACHUSETTS

CITY           SKY/WX    TMP DP  RH WIND       PRES   REMARKS
WORCESTER      LGT RAIN  47  30  51 SE9       30.20F
FITCHBURG      LGT RAIN  52  32  46 SE9       30.22F
ORANGE         LGT RAIN  49  33  54 SW5       30.20S
SPRINGFIELD    LGT RAIN  49  39  66 S3        30.20S
WESTFIELD      LGT RAIN  48  38  68 VRB6      30.20S
NORTH ADAMS    LGT RAIN  47  36  65 SE13G18   30.18S
PITTSFIELD     LGT RAIN  42  37  82 SE9       30.15F
$$

RIZALL-011800-
RHODE ISLAND

CITY           SKY/WX    TMP DP  RH WIND       PRES   REMARKS
PROVIDENCE     CLOUDY    50  32  50 S13       30.23F
NEWPORT        CLOUDY    49  32  52 SE8       30.21F
BLOCK ISLAND   LGT RAIN  47  39  74 SE9       30.23F
SMITHFIELD       N/A     52  23  32 S6        30.21F
WESTERLY       CLOUDY    50  36  58 SE9       30.23F
$$

CTZALL-011800-
CONNECTICUT

CITY           SKY/WX    TMP DP  RH WIND       PRES   REMARKS
BRADLEY INTL   CLOUDY    50  29  44 S13       30.20S
HARTFORD       LGT RAIN  51  35  54 S7        30.22S
BRIDGEPORT     LGT RAIN  50  45  83 SE8       30.20F
DANBURY        CLOUDY    47  41  80 SE7       30.19F
GROTON         LGT RAIN  48  41  76 SE10      30.22F
NEW HAVEN      CLOUDY    49  43  80 SE10      30.21F
CHESTER        CLOUDY    48  34  57 SE9       30.21F
MERIDEN        CLOUDY    50  35  56 SE7       30.21F
WILLIMANTIC    CLOUDY    53  24  32 S7        30.22S
OXFORD         LGT RAIN  46  37  71 S7        30.20F FOG
$$

MEZ002-015-021-024-NHZ003-005-008-011-012-014-VTZ005-008-011800-
NORTHERN NEW ENGLAND

CITY           SKY/WX    TMP DP  RH WIND       PRES   REMARKS
PORTLAND ME    CLOUDY    49  39  68 S12       30.25R
BANGOR ME      CLOUDY    61  24  24 S12       30.23F
CONCORD NH     LGT RAIN  47  41  80 SE5       30.23S
MANCHESTER NH  LGT RAIN  51  35  54 VRB3      30.21F
NASHUA NH      LGT RAIN  53  39  59 SE6       30.23F
PORTSMOUTH NH  CLOUDY    52  34  50 SE8       30.22F
JAFFREY NH     LGT RAIN  48  39  71 CALM      30.20F
KEENE NH       CLOUDY    50  39  66 S5        30.21S
BURLINGTON VT  LGT RAIN  48  43  82 S6        30.19S FOG
MT. WASHINGTON SNOW      30  30 100 S13         N/A  VSB 3/16WCI  20
$$

NYZ052-076-011800-
EASTERN NEW YORK

CITY           SKY/WX    TMP DP  RH WIND       PRES   REMARKS
ALBANY         LGT RAIN  45  39  79 S17G24    30.17F
NEW YORK CITY  LGT RAIN  49  42  77 SE13      30.17F
$$

ANZALL-011800-
MARINE OBSERVATIONS

STATION/POSITION TIME  TEMP    WIND        PRES    VSBY  WAVE
                       AIR SEA DIR/SP/G                  HT/PER
                 (UTC) (F)     (DEG/KT/KT) (MB)    (MI)  (FT/S)
BOSTON BUOY      1650   47 47  130/ 10/ 12 1023.3F         3/ 7
BUZZARDS BAY     1600   47     140/  7/  8 1025.2R
NANTUCKET SOUND  1650   47 49  110/ 10/ 12 1024.4S         1/11
MASS BAY-STELLWA 1604   46 46                N/A    1 7/8  4/ 7
ISLE OF SHOALS   1600   47     180/ 16/ 17 1023.6R
S OF BLOCK IS    NOT AVBL
$$

......................KEY.........................
  SKY/WX - SKY CONDITION/PRESENT WEATHER
  TMP    - TEMPERATURE IN FAHRENHEIT
  DWPT   - DEWPOINT IN FAHRENHEIT
  RH     - RELATIVE HUMIDITY IN PERCENT
  WIND   - DIRECTION AND SPEED IN MPH
  PRES   - MEAN SEA LEVEL PRESSURE IN INCHES OF HG
  WCI    - WIND CHILL INDEX
  VSB    - VISIBILITY IN MILES
  HX     - HEAT INDEX
  TC     - TEMPERATURE IN CELSIUS
  VRB    - VARIABLE WIND DIRECTION
  N/A    - NOT AVAILABLE




USA.gov is the U.S. government's official web portal to all federal, state and local government web resources and services.